Location: Aragoneses
(41.0275°N, 4.3847°W)
Time: 16:40:09
(UTC+00:00)

Cosmos 783 Rocket - Pass Details

Date: 11 December 2025
Orbit: 753 x 776 km, 74.1° (Epoch: 16 January)

Event Time Altitude Azimuth Distance (km) Brightness Sun altitude
Rises 17:43:48 0° 342° (NNW) 3,264 7.7 -10.1°
Reaches altitude 10° 17:46:12 10° 344° (NNW) 2,333 7.0 -10.5°
Maximum altitude 17:51:30 76° 70° (ENE) 802 4.5 -11.4°
Drops below altitude 10° 17:56:46 10° 156° (SSE) 2,312 7.0 -12.4°
Sets 17:59:08 0° 158° (SSE) 3,232 7.7 -12.8°
